DW3200 Weather Reports


time (UTC)temp
C
wind
direction
speed
KPH
gust
KPH
rain 1hr
cm
rain 24hr
cm
rain mn
cm
humidity
%
barometer
mb
20260509004552 16 296 6.4 0.0 0.00 0.00 0.00 39 1014.2
20260509003042 16 293 4.8 0.0 0.00 0.00 0.00 39 1014.2
20260509001522 17 294 6.4 0.0 0.00 0.00 0.00 40 1014.2
20260509000036 17 288 6.4 0.0 0.00 0.00 0.00 39 1014.2
20260508234504 18 289 9.7 0.0 0.00 0.00 0.00 40 1014.1
20260508233004 18 288 8.0 0.0 0.00 0.00 0.00 40 1014.1
20260508231604 17 306 9.7 0.0 0.00 0.00 0.00 41 1014.1
20260508230046 18 313 6.4 0.0 0.00 0.00 0.00 38 1014.0
20260508224605 17 294 4.8 0.0 0.00 0.00 0.00 38 1013.9
20260508223028 17 296 6.4 0.0 0.00 0.00 0.00 40 1014.1
20260508221533 18 292 9.7 0.0 0.00 0.00 0.00 40 1014.1
20260508220010 18 289 8.0 0.0 0.00 0.00 0.00 42 1014.2
20260508214511 17 290 11.3 0.0 0.00 0.00 0.00 44 1014.1
20260508213052 17 304 8.0 0.0 0.00 0.00 0.00 46 1014.1
20260508211554 17 290 8.0 0.0 0.00 0.00 0.00 48 1014.1
20260508210036 17 296 6.4 0.0 0.00 0.00 0.00 50 1014.2
20260508204535 17 299 6.4 0.0 0.00 0.00 0.00 51 1014.1
20260508203016 18 277 8.0 0.0 0.00 0.00 0.00 46 1014.1
20260508201516 17 281 8.0 0.0 0.00 0.00 0.00 50 1014.1
20260508200110 17 292 6.4 0.0 0.00 0.00 0.00 49 1013.9
20260508194600 18 199 3.2 0.0 0.00 0.00 0.00 38 1013.8
20260508193048 18 200 4.8 0.0 0.00 0.00 0.00 40 1013.9
20260508191538 18 225 1.6 0.0 0.00 0.00 0.00 37 1014.0
20260508190020 18 245 3.2 0.0 0.00 0.00 0.00 36 1014.1
20260508184525 18 222 3.2 0.0 0.00 0.00 0.00 36 1014.2
20260508183137 17 213 1.6 0.0 0.00 0.00 0.00 35 1014.2
20260508181612 17 223 3.2 0.0 0.00 0.00 0.00 35 1014.1
20260508180038 17 223 4.8 0.0 0.00 0.00 0.00 37 1014.1
20260508174538 17 240 6.4 0.0 0.00 0.00 0.00 40 1014.1
20260508173019 17 189 1.6 0.0 0.00 0.00 0.00 43 1014.0
20260508171529 17 198 3.2 0.0 0.00 0.00 0.00 47 1014.1
20260508170001 16 198 1.6 0.0 0.00 0.00 0.00 52 1014.0
20260508164558 16 200 1.6 0.0 0.00 0.00 0.00 54 1014.1
20260508163055 15 200 4.8 0.0 0.00 0.00 0.00 54 1014.1
20260508161552 15 288 1.6 0.0 0.00 0.00 0.00 64 1014.1
20260508160056 15 289 1.6 0.0 0.00 0.00 0.00 63 1014.2
20260508154551 15 289 0.0 0.0 0.00 0.00 0.00 64 1014.2
20260508153046 13 288 0.0 0.0 0.00 0.00 0.00 71 1014.2
20260508151546 12 288 0.0 0.0 0.00 0.00 0.00 79 1014.2
20260508150029 11 288 0.0 0.0 0.00 0.00 0.00 84 1014.2
20260508144536 10 288 0.0 0.0 0.00 0.00 0.00 88 1014.3
20260508143016 10 288 0.0 0.0 0.00 0.00 0.00 91 1014.2
20260508141509 8 288 0.0 0.0 0.00 0.00 0.00 92 1014.2
20260508140056 6 288 0.0 0.0 0.00 0.00 0.00 91 1014.3
20260508134546 5 288 0.0 0.0 0.00 0.00 0.00 91 1014.2
20260508133026 5 288 0.0 0.0 0.00 0.00 0.00 92 1014.0
20260508131527 4 288 0.0 0.0 0.00 0.00 0.00 92 1014.1
20260508130010 3 288 0.0 0.0 0.00 0.00 0.00 91 1013.9
20260508124509 3 288 0.0 0.0 0.00 0.00 0.00 91 1013.8
20260508123049 4 288 0.0 0.0 0.00 0.00 0.00 91 1013.8
20260508121549 4 288 0.0 0.0 0.00 0.00 0.00 90 1013.8
20260508120029 4 288 0.0 0.0 0.00 0.00 0.00 91 1013.7
20260508114533 4 288 0.0 0.0 0.00 0.00 0.00 90 1013.9
20260508113010 4 288 0.0 0.0 0.00 0.00 0.00 90 1013.7
20260508111508 4 288 0.0 0.0 0.00 0.00 0.00 90 1013.6
20260508110048 5 288 0.0 0.0 0.00 0.00 0.00 90 1013.6
20260508104555 5 288 0.0 0.0 0.00 0.00 0.00 89 1013.6
20260508103029 5 288 0.0 0.0 0.00 0.00 0.00 89 1013.6
20260508101535 5 288 0.0 0.0 0.00 0.00 0.00 89 1013.5
20260508100009 5 288 0.0 0.0 0.00 0.00 0.00 89 1013.4
20260508094507 5 288 0.0 0.0 0.00 0.00 0.00 89 1013.4
20260508093048 5 288 0.0 0.0 0.00 0.00 0.00 88 1013.5
20260508091547 6 288 0.0 0.0 0.00 0.00 0.00 88 1013.4
20260508090032 6 288 0.0 0.0 0.00 0.00 0.00 88 1013.3
20260508084523 6 288 0.0 0.0 0.00 0.00 0.00 87 1013.3
20260508083006 6 288 0.0 0.0 0.00 0.00 0.00 87 1013.2
20260508081503 6 288 0.0 0.0 0.00 0.00 0.00 87 1013.2
20260508080044 7 288 0.0 0.0 0.00 0.00 0.00 86 1013.1
20260508074541 7 288 0.0 0.0 0.00 0.00 0.00 86 1013.1
20260508073027 7 288 0.0 0.0 0.00 0.00 0.00 85 1013.2
20260508071525 7 288 0.0 0.0 0.00 0.00 0.00 85 1013.1
20260508070023 8 288 0.0 0.0 0.00 0.00 0.00 84 1013.1
20260508064546 8 288 0.0 0.0 0.00 0.00 0.00 83 1013.0
20260508063026 8 288 0.0 0.0 0.00 0.00 0.00 82 1013.0
20260508061517 8 288 0.0 0.0 0.00 0.00 0.00 82 1012.9
20260508060015 8 288 0.0 0.0 0.00 0.00 0.00 81 1012.8
20260508054525 8 288 0.0 0.0 0.00 0.00 0.00 81 1012.8
20260508053053 9 288 0.0 0.0 0.00 0.00 0.00 79 1012.8
20260508051552 10 288 0.0 0.0 0.00 0.00 0.00 78 1012.8
20260508050036 10 288 0.0 0.0 0.00 0.00 0.00 76 1012.7
20260508044528 11 288 0.0 0.0 0.00 0.00 0.00 73 1012.7
20260508043008 11 288 0.0 0.0 0.00 0.00 0.00 72 1012.6
20260508041504 12 288 0.0 0.0 0.00 0.00 0.00 70 1012.5
20260508040053 12 288 0.0 0.0 0.00 0.00 0.00 69 1012.4
20260508034546 13 288 0.0 0.0 0.00 0.00 0.00 66 1012.2
20260508033034 13 288 0.0 0.0 0.00 0.00 0.00 63 1012.0
20260508031531 15 288 0.0 0.0 0.00 0.00 0.00 61 1011.9
20260508030032 16 288 1.6 0.0 0.00 0.00 0.00 54 1011.8
20260508024530 17 288 0.0 0.0 0.00 0.00 0.00 53 1011.6
20260508023030 17 288 3.2 0.0 0.00 0.00 0.00 49 1011.4
20260508021530 18 288 4.8 0.0 0.00 0.00 0.00 47 1011.5
20260508020029 19 288 6.4 0.0 0.00 0.00 0.00 45 1011.5
20260508014529 19 290 8.0 0.0 0.00 0.00 0.00 45 1011.5
20260508013026 20 288 8.0 0.0 0.00 0.00 0.00 45 1011.6
20260508011532 20 269 6.4 0.0 0.00 0.00 0.00 44 1011.7
20260508010020 20 289 8.0 0.0 0.00 0.00 0.00 42 1011.8